Location: Sebastopol
(38.4021°N, 122.8239°W)
Time: 15:20:00
(UTC+00:00)

SL-14 R/B - Pass Details

Date: 29 October 2020
Orbit: 517 x 555 km, 82.4° (Epoch: 30 November)

Event Time Altitude Azimuth Distance (km) Brightness Sun altitude
Exits shadow 13:02:28 36° 316° (NW) 875 3.9 -18.7°
Drops below altitude 10° 13:05:25 10° 353° (N) 1,835 5.9 -18.1°
Sets 13:07:42 0° 1° (N) 2,738 6.9 -17.7°
